User: anonymous   Login
Location: Gipe Farm
(40.9466°N, 95.5370°W)
Time: 04:03:47
(UTC-05:00)
Language:

Cosmos 1842 - Orbit

View from above orbital plane
View from above orbital plane
View from above satellite
View from above satellite

Ground track
Ground track

The orbit data is extracted from the following two-line orbital elements,

1 17911U 87038A   14302.86969569  .00005360  00000-0  35366-3 0  6080
2 17911 082.4934 052.6144 0012328 276.8895 083.0930 15.07209686496741
Epoch (UTC): 29 October 2014 20:52:21
Eccentricity: 0.0012328
inclination: 82.4934°
perigee height: 536 km
apogee height: 553 km
right ascension of ascending node: 52.6144°
argument of perigee: 276.8895°
revolutions per day: 15.07209686
mean anomaly at epoch: 83.0930°
orbit number at epoch: 49674

The dashed part of the orbit path shows where the satellite is in the earth's shadow,  

DLR